DELTA 1 DEB, 3811

Orbit data source: Space-Track

DELTA 1 DEB, 3811 is space debris in SSO originally from a launch on Sun, 15 Dec 1968 UTC launched from the Air Force Western Test Range (AFWTR). Debris objects in space refer to the collection of defunct objects orbiting the Earth. Examples of debris include non-operational satellites, rocket bodies, and fragments generated from explosions, collisions, or faulty payload assembly.

Loading next visibility...
Identifier
3811, 1968-114C
Orbit
SSO
Last TLE update
15 hours ago
Origin
Manufacturer
Unknown
Mission
Spacecraft
Bus & Motor
Unknown
Mass
Unknown
Launch date (UTC)
1968-12-15 (56 years ago)
Launch vehicle
Unknown
Launch site
Air Force Western Test Range (AFWTR)
Object type
Payload
Rocket body
Debris
Shape & HBR
Unknown
Radar Cross Section
Small (<0.1 m²)

Expand to show TLE details & history

TLE from 15 hours ago
0 DELTA 1 DEB
1 03811U 68114C   25128.72477899 -.00000025  00000-0  11103-3 0  9991
2 03811 101.8837  45.9965 0137326 252.2391 164.8323 12.76369314626628
Epoch: 2025-05-08T17:23Z
Definitive object data (Epoch: 2025-05-08T17:23:40.904Z)
Latitude
55.69262°
Longitude
-99.58717°
Altitude
1,467.787 km
Speed
7.087 km/s
True Right ascension
01h 52m 29s
True Declination
55° 32' 49"
Sunlit
Object was in daylight at TLE epoch
Visualization TLE readout
Latitude
-19.32049°
Longitude
-76.86821°
Altitude
1,360.664 km
Speed
7.179 km/s
Apparent Right ascension
03h 42m 33s
Apparent Declination
-28° 35' 46"
Sunlit
Object is in daylight
Visualization observer readout
Local Sidereal Time
16:11:12
Azimuth
29.708° NE
Elevation
-77.236°
Doppler factor
1
Orbital elements
Apogee altitude
1,459.799 km
Perigee altitude
1,247.445 km
Semi-major axis
7,731.759 km
Eccentricity
0.0137326
Inclination
101.8837°
RAAN
45.9965°
Arg. of periapsis
252.2391°
True anomaly
165.23732°
Mean anomaly
164.8323°
Eccentric anomaly
165.03547°
Mean motion
3.19246 °/min
BSTAR
0.00011103
Orbital period
112.77 mins
Loading maneuver chart data...
Loading SW <> Apogee altitude chart data...
Loading historical data...
Loading historical data...
Loading historical data...
Loading historical data...
Loading historical data...
Loading historical data...
Loading historical data...

DELTA 1 DEB Visibility forecast

Observer location: undefined°, undefined°

Span
Click to sort rows by Start time (UTC) header in descending order
Start Az.
Max El. time (UTC)
Max El. Az.
Max El.
End time (UTC)
End Az.
13 mins2025-05-09 08:44:07.039Z0.533° NNE2025-05-09 08:51:07.039Z298.223° NW29.506°2025-05-09 08:57:07.039Z243.471° WSW
6 mins2025-05-09 15:55:07.039Z62.932° ENE2025-05-09 15:57:07.039Z47.553° ENE13.97°2025-05-09 16:01:07.039Z18.161° NNE
14 mins2025-05-09 17:40:07.039Z140.252° SSE2025-05-09 17:46:07.039Z74.576° E41.26°2025-05-09 17:54:07.039Z349.68° N
12 mins2025-05-09 19:32:07.039Z213.701° SW2025-05-09 19:37:07.039Z259.34° W26.288°2025-05-09 19:44:07.039Z319.962° NNW
5 mins2025-05-10 05:33:07.039Z70.404° E2025-05-10 05:35:07.039Z86.051° E13.341°2025-05-10 05:38:07.039Z109.866° ESE
14 mins2025-05-10 07:21:07.039Z21.46° NNE2025-05-10 07:27:07.039Z80.569° E44.338°2025-05-10 07:35:07.039Z193.886° SSW
|